Hinesville, GA

2:47 AM EST on February 10, 2016 (GMT -0500)
Wright Army Air Field

Weather History for KLHW - September, 2012

Change the Weather History Date:

Monday, September 3, 2012

  Actual Average Record
Temperature  
Mean Temperature 81 °F -  
Max Temperature 89 °F 89 °F - (-1)
Min Temperature 73 °F 70 °F - (-1)
Cooling Degree Days 16    
Growing Degree Days 31 (Base 50)    
Moisture  
Dew Point 73 °F    
Average Humidity 86    
Maximum Humidity 98    
Minimum Humidity 58    
Precipitation  
Precipitation 0.03 in - - ()
Sea Level Pressure  
Sea Level Pressure 30.00 in    
Wind  
Wind Speed 3 mph (SSE)    
Max Wind Speed 10 mph    
Max Gust Speed -    
Visibility 10 miles    
Events Rain , Thunderstorm    
Averages and records for this station are not official NWS values.
T = Trace of Precipitation, MM = Missing Value Source: NWS Daily Summary

Daily Weather History Graph

Daily Weather History Graph

Search for Another Location

Airport or City:

Trip Planner

Search our weather history database for the weather conditions in past years. The results will help you decide how hot, cold, wet, or windy it might be!

Date:

Astronomy

Sep. 03, 2012 Rise Set
Actual Time 7:03 AM EDT 7:47 PM EDT
Civil Twilight 6:38 AM EDT 8:11 PM EDT
Nautical Twilight 6:09 AM EDT 8:40 PM EDT
Astronomical Twilight 5:39 AM EDT 9:10 PM EDT
Moon 9:22 PM EDT (9/3) 9:54 AM EDT (9/3)
Length of Visible Light 13h 33m
Length of Day
12h 43m
Waning Gibbous, 90% of the Moon is Illuminated
Sep 3
Waning Gibbous
Sep 8
Last Quarter
Sep 15
New
Sep 22
First Quarter
Sep 29
Full

Hourly Weather History & Observations

Time (EDT) Temp. Heat Index Dew Point Humidity Pressure Visibility Wind Dir Wind Speed Gust Speed Precip Events Conditions
12:55 AM 75.4 °F - 74.5 °F 97% 30.01 in 10.0 mi SE 3.5 mph - N/A   Clear
1:55 AM 75.7 °F - 74.5 °F 96% 30.01 in 10.0 mi SSW 3.5 mph - N/A   Clear
2:55 AM 75.0 °F - 73.9 °F 96% 30.00 in 10.0 mi Calm Calm - N/A   Clear
3:55 AM 74.5 °F - 73.9 °F 98% 29.99 in 10.0 mi Calm Calm - N/A   Clear
4:55 AM 74.5 °F - 73.6 °F 97% 29.99 in 10.0 mi Calm Calm - N/A   Clear
5:55 AM 74.1 °F - 72.9 °F 96% 30.00 in 10.0 mi Calm Calm - N/A   Clear
6:55 AM 73.6 °F - 72.3 °F 96% 30.01 in 10.0 mi Calm Calm - N/A   Clear
7:55 AM 73.9 °F - 72.3 °F 95% 30.03 in 10.0 mi SSE 3.5 mph - N/A   Clear
8:55 AM 76.6 °F - 72.9 °F 88% 30.03 in 10.0 mi South 4.6 mph - N/A   Clear
9:55 AM 81.5 °F 86.9 °F 73.6 °F 77% 30.04 in 10.0 mi SW 5.8 mph - N/A   Clear
10:55 AM 84.9 °F 91.8 °F 73.2 °F 68% 30.04 in 10.0 mi South 4.6 mph - N/A   Clear
11:55 AM 86.0 °F 94.2 °F 74.1 °F 68% 30.04 in 10.0 mi Calm Calm - N/A   Partly Cloudy
12:55 PM 89.8 °F 98.6 °F 73.6 °F 59% 30.01 in 10.0 mi South 10.4 mph - N/A   Partly Cloudy
1:55 PM 88.3 °F 96.9 °F 73.9 °F 62% 29.99 in 10.0 mi South 8.1 mph - N/A   Overcast
2:47 PM 87.8 °F 93.8 °F 71.6 °F 58% 29.98 in 10.0 mi SSE 6.9 mph - N/A Thunderstorm Thunderstorm
2:55 PM 86.4 °F 94.2 °F 73.9 °F 66% 29.98 in 10.0 mi SE 8.1 mph - N/A Thunderstorm Thunderstorm
3:11 PM 82.4 °F 87.2 °F 71.6 °F 70% 29.98 in 10.0 mi South 9.2 mph - N/A Rain , Thunderstorm Light Thunderstorms and Rain
3:40 PM 75.2 °F - 73.4 °F 94% 30.00 in 10.0 mi SE 6.9 mph - N/A Thunderstorm Thunderstorm
3:55 PM 75.6 °F - 72.7 °F 91% 29.99 in 10.0 mi SE 10.4 mph - 0.03 in   Scattered Clouds
4:55 PM 75.0 °F - 72.9 °F 93% 29.99 in 10.0 mi SSE 3.5 mph - N/A   Partly Cloudy
5:55 PM 76.1 °F - 72.1 °F 87% 29.98 in 10.0 mi Calm Calm - N/A   Partly Cloudy
6:55 PM 75.9 °F - 73.0 °F 91% 29.98 in 10.0 mi Calm Calm - N/A   Scattered Clouds
7:55 PM 76.1 °F - 73.6 °F 92% 29.98 in 10.0 mi Calm Calm - N/A   Scattered Clouds
8:55 PM 76.1 °F - 74.5 °F 95% 29.99 in 10.0 mi South 3.5 mph - N/A   Overcast
9:55 PM 75.7 °F - 74.5 °F 96% 29.99 in 10.0 mi SE 3.5 mph - N/A   Mostly Cloudy
10:55 PM 75.7 °F - 73.6 °F 93% 30.00 in 10.0 mi SSE 4.6 mph - N/A   Mostly Cloudy
11:55 PM 75.2 °F - 73.4 °F 94% 30.00 in 10.0 mi Calm Calm - N/A   Clear